Weather in Beylagan

Azerbaijan     39°46′08″N   47°36′24″E
temp.,
°C
wind,
m/s
gust,
m/s
humid.,
%
clouds,
%
prec.,
mm/h
press.,
hPa
HPBL,
m
12 may, wed
wed1201:00+13nw23600 0.0 101531
04:00+12nw22650 0.0 101618
07:00+13wnw12630 0.0 101694
10:00+18nnw22460 0.0 1016820
13:00+22ne22390 0.0 10141146
16:00+24ne22350 0.0 10131213
19:00+23e22440 0.0 101320
22:00+19ese1151100 0.0 101412
13 may, thu
thu1301:00+16se226852 0.0 101421
04:00+14ene118160 0.0 101413
07:00+16nnw23765 0.0 1016109
10:00+21nne22524 0.0 1016601
13:00+25nne32380 0.0 10151010
16:00+28ne33340 0.0 10131332
19:00+27ese22440 0.0 101318
22:00+22e11522 0.0 101414
14 may, fri
fri1401:00+20ese01685 0.0 101511
04:00+18nnw22734 0.0 101511
07:00+19nw12685 0.0 101661
10:00+25nne32435 0.0 1016706
13:00+29ene333126 0.0 10151338
16:00+31e3426100 0.0 10131839
19:00+28ese343599 0.0 101366
22:00+20se35572 0.0 101576
15 may, sat
sat1501:00+19nne11590 0.0 101411
04:00+16ene11725 0.0 101411
07:00+19wsw01635 0.0 101548
10:00+25ne22425 0.0 1015612
13:00+29ene33273 0.0 10141543
16:00+31e331912 0.0 10122200
19:00+27se59250 0.0 1012212
22:00+21sse33300 0.0 101335
16 may, sun
sun1601:00+19w11290 0.0 101211
04:00+17nne01340 0.0 101311
07:00+19wsw11380 0.0 101331
10:00+25ene22240 0.0 1013571
13:00+30e33190 0.0 10111585
16:00+31e33170 0.0 10082023
19:00+27ese58250 0.0 1008195
22:00+20ese24370 0.0 100955